#timestamp,LO_Frequency,Hit,StdDev 
1644822015.1,286046997.3,N
1644822035.9,286046995.2,N
1644822055.7,286046997.6,N
1644822075.6,286046999.1,N
1644822095.4,286046995.6,N
1644822115.2,286046996.1,N
1644822135.1,286046995.8,N
1644822136.0,286046995.8,N
1644822155.8,286046994.2,N
1644822175.7,286046991.7,N
1644822195.5,286046994.3,N
1644822215.3,286046996.2,N
1644822235.2,286046995.1,N
1644822255.0,286046995.7,N
1644822255.9,286046995.7,N
1644822275.7,286046995.0,N
1644822295.6,286046996.6,N
1644822315.4,286046995.4,N
1644822335.3,286046999.5,N
1644822355.1,286046997.5,N
1644822375.8,286046996.3,N
1644822395.7,286046998.0,N
1644822415.5,286046999.1,N
1644822435.4,286046995.0,Y
1644822455.2,286047000.1,P
1644822475.0,286047002.4,N
1644822475.9,286047002.4,N
1644822495.8,286047001.0,N
1644822515.6,286046998.5,N
1644822535.4,286047000.6,N
1644822555.3,286046999.1,N
1644822575.1,286046996.5,N
1644822595.9,286046998.7,N
1644822615.7,286047001.1,N
1644822635.5,286047001.0,N
1644822655.4,286046998.5,N
1644822675.2,286046999.5,N
1644822695.0,286046997.5,N
1644822695.9,286046997.5,N
1644822715.8,286046996.6,N
1644822735.6,286046999.1,N
1644822755.5,286046999.4,N
1644822775.3,286046999.0,N
1644822795.1,286047002.7,N
1644822815.9,286047000.3,N
1644822835.7,286046998.6,N
1644822855.5,286046999.3,N
1644822875.4,286046998.9,N
1644822895.2,286046999.7,N
1644822915.1,286047001.2,N
1644822916.0,286047001.2,N
1644822935.8,286046998.7,N
1644822955.6,286047002.5,N
1644822975.5,286047002.0,N
1644822995.3,286047000.0,N
1644823015.1,286046999.3,N
1644823035.9,286047001.2,N
1644823055.7,286047001.7,N
1644823075.6,286047000.1,N
1644823095.4,286047001.1,N
1644823115.2,286047000.1,N
1644823135.1,286047001.3,N
1644823136.0,286047001.3,N
1644823155.8,286047002.4,N
1644823175.6,286047003.7,N
1644823195.5,286047009.0,Y
1644823215.3,286047008.1,P
1644823235.2,286047006.3,N
1644823255.9,286047009.9,N
1644823305.8,286047013.7,E
1644823315.7,286047010.4,N
1644823335.5,286047013.6,P
1644823355.3,286047018.8,P
1644823375.2,286047019.5,Y
1644823395.0,286047008.4,P
1644823395.9,286047008.4,N
1644823415.8,286047013.9,P
1644823435.6,286047011.2,Y
1644823455.4,286046996.7,P
1644823475.3,286047002.7,N
1644823495.1,286046998.4,N
1644823515.9,286046998.7,N
1644823535.7,286047007.3,N
1644823555.5,286047010.9,N
1644823575.4,286047005.7,N
1644823595.2,286047004.2,N
1644823615.0,286047003.7,N
1644823615.9,286047003.7,N
1644823635.8,286047001.1,N
1644823655.6,286046996.6,N
1644823675.5,286046999.1,N
1644823695.3,286046999.1,N
1644823715.1,286046996.8,N
1644823735.9,286046996.2,N
1644823755.7,286046996.8,N
1644823775.5,286046992.4,N
1644823795.4,286046995.8,N
1644823815.2,286046995.0,N
1644823835.1,286046997.9,N
1644823836.0,286046997.9,N
1644823855.8,286047004.3,N
1644823875.6,286046999.6,N
1644823895.5,286046996.9,N
1644823915.3,286047004.3,N
1644823935.1,286047002.2,N
1644823955.9,286047003.6,N
1644823975.7,286047012.7,N
1644823995.6,286047025.4,Y
1644824015.4,286047031.8,P
1644824035.2,286047026.5,N
1644824055.1,286047018.7,N
1644824056.0,286047018.7,N
1644824075.8,286047009.4,N
1644824095.6,286047010.6,N
1644824115.5,286047008.6,N
1644824135.3,286047003.0,N
1644824155.2,286047000.9,N
1644824175.9,286046999.2,N
1644824195.7,286047001.9,N
1644824215.6,286047009.9,N
1644824235.4,286047011.2,N
1644824255.2,286047011.1,N
1644824275.1,286047015.1,N
1644824276.0,286047015.1,N
1644824295.8,286047019.1,N
1644824315.7,286047022.0,N
1644824335.5,286047023.3,N
1644824355.3,286047023.0,N
1644824375.2,286047024.8,N
1644824395.0,286047028.3,Y
1644824395.9,286047028.3,P
1644824415.7,286047010.8,N
1644824435.6,286047011.3,N
1644824455.4,286047017.0,N
1644824475.3,286047012.3,N
1644824495.1,286047007.8,N
1644824496.0,286047007.8,N
1644824515.8,286047009.5,N
1644824535.7,286047015.2,N
1644824555.5,286047015.1,N
1644824575.3,286047017.1,Y
1644824595.2,286047004.2,P
1644824615.0,286047000.8,N
1644824615.9,286047000.8,N
1644824635.8,286046996.8,N
1644824655.6,286047001.6,N
1644824675.4,286046997.2,N
1644824695.3,286047001.7,N
1644824715.1,286047004.9,N
1644824735.9,286047011.1,N
1644824755.7,286047009.8,N
1644824775.5,286047015.3,N
1644824795.4,286047013.2,N
1644824815.2,286047023.6,Y
1644824835.0,286047024.7,P
1644824836.0,286047024.7,N
1644824855.8,286047022.8,N
1644824875.6,286047024.5,Y
1644824895.5,286047009.8,P
1644824915.3,286047006.1,N
1644824935.1,286047002.5,N
1644824955.9,286046998.6,N
1644824975.7,286046991.1,N
1644824995.6,286046986.3,N
1644825015.4,286046983.0,N
1644825035.2,286046980.2,N
1644825055.1,286046973.5,N
1644825056.0,286046973.5,N
1644825075.8,286046963.1,N
1644825095.6,286046957.0,N
1644825115.5,286046954.4,N
1644825135.3,286046947.1,N
1644825155.2,286046948.3,N
1644825175.9,286046943.0,N
1644825195.7,286046942.3,N
1644825215.6,286046940.8,N
1644825235.4,286046939.4,N
1644825255.2,286046938.0,N
1644825275.1,286046932.5,N
1644825276.0,286046932.5,N
1644825295.8,286046933.5,N
1644825315.7,286046929.4,N
1644825335.5,286046935.1,N
1644825355.3,286046926.5,N
1644825375.2,286046928.0,N
1644825395.0,286046927.4,N
1644825395.9,286046927.4,N
1644825415.7,286046925.7,N
1644825435.6,286046925.2,N
1644825455.4,286046924.9,N
1644825475.3,286046926.2,Y
1644825495.1,286046976.6,P
1644825496.0,286046976.6,N
1644825515.8,286046980.0,N
1644825535.7,286046980.3,N
1644825555.5,286046974.3,N
1644825575.3,286046977.2,N
1644825595.2,286046976.3,N
